Theta_e
301 302 303 308 309 314 319 325 331 332 331 331 330 333 334 333 333 327 326 328 327 328 328 327 325 321 321 320 320 320 319 318 317 317 316 315 316 315 315 314 314 314 314
301 301 301 305 307 310 315 319 326 330 332 331 330 330 332 332 331 327 326 329 326 324 326 326 327 325 322 321 320 319 319 318 317 317 316 316 315 315 314 314 314 314 314
300 299 301 302 305 308 311 316 322 327 330 333 332 330 331 329 333 329 327 327 327 327 325 325 325 325 324 322 321 319 318 318 317 317 316 315 315 315 314 314 313 313 314
301 299 301 301 303 306 308 312 317 323 328 332 332 330 329 327 331 332 327 327 327 327 326 323 325 324 324 321 319 320 318 318 317 316 315 315 315 314 314 314 313 313 313
301 300 301 300 303 305 307 309 314 316 323 329 332 331 330 329 330 332 328 326 326 326 326 324 323 324 324 322 321 322 319 318 317 317 316 315 315 314 313 313 313 312 312
300 300 300 300 302 304 306 307 310 315 320 328 331 330 330 330 329 330 329 326 325 324 324 325 323 322 323 324 321 324 323 319 318 317 317 315 315 314 313 313 313 312 313
300 300 299 300 302 303 304 305 308 311 320 328 330 329 328 327 326 327 331 328 326 325 322 323 323 323 324 323 322 323 324 322 321 320 316 316 315 314 314 313 313 313 312
300 300 299 301 301 302 303 304 306 307 314 326 327 327 326 326 325 325 329 330 329 326 324 322 323 322 324 324 323 322 324 323 322 321 320 317 314 314 314 313 313 313 313
300 299 299 300 301 301 302 303 304 304 309 320 325 326 326 326 325 323 326 326 329 327 326 325 323 321 321 322 322 321 323 323 322 321 320 317 316 315 314 314 313 313 313
298 297 298 299 301 301 300 301 304 304 306 311 320 324 325 326 324 330 325 327 330 328 327 326 325 323 322 321 320 319 321 322 321 321 321 319 317 317 315 315 314 313 313
296 296 298 298 299 299 300 301 304 303 305 308 312 318 323 326 327 328 330 329 330 329 327 326 325 324 324 322 321 321 320 320 321 319 322 320 318 318 317 316 315 314 314
296 296 297 299 298 299 300 300 303 303 306 307 311 314 315 323 325 327 328 329 329 329 328 327 326 326 326 324 323 323 321 320 319 320 319 321 321 318 317 316 316 315 315
295 296 297 297 298 298 299 300 303 304 307 308 310 313 316 319 323 326 327 328 328 329 329 328 327 326 325 325 324 322 322 321 321 320 319 318 320 320 319 317 317 316 316
296 297 297 297 297 298 299 300 303 305 307 308 309 313 316 320 325 324 326 327 327 328 329 329 328 327 326 325 324 324 322 322 323 322 319 318 317 319 320 320 319 317 317
296 296 296 297 297 297 299 301 302 304 306 307 309 312 316 322 326 326 325 326 327 328 328 329 329 328 327 326 325 324 324 323 321 321 320 319 318 317 318 319 320 320 319
295 296 296 296 296 297 299 301 302 303 304 306 307 311 317 322 327 327 327 328 327 327 328 327 329 329 328 327 326 325 324 325 325 322 320 319 318 317 316 316 317 318 318
295 295 296 296 296 296 298 299 300 301 302 305 305 309 311 317 323 327 327 327 327 327 327 327 328 329 328 328 328 326 325 326 326 325 323 322 320 318 315 314 314 315 315
294 295 295 296 295 294 297 298 299 300 300 302 303 308 308 311 315 321 322 323 326 326 326 326 326 326 328 328 328 327 326 326 327 326 326 324 323 321 320 317 316 316 316
294 295 295 295 293 293 296 297 298 298 299 299 301 307 306 306 309 314 316 320 320 322 323 325 325 326 328 328 327 327 327 327 326 326 326 326 326 325 324 322 320 319 318
294 295 295 294 292 293 295 296 296 296 297 297 298 301 306 305 304 308 310 316 316 318 320 323 326 325 326 326 326 327 327 327 326 326 326 327 326 326 325 324 323 322 321
294 295 294 294 291 292 293 295 295 295 295 296 296 296 300 300 301 302 304 310 315 317 317 318 322 325 325 326 326 326 326 327 327 327 326 326 326 326 325 325 325 325 325
294 294 294 294 293 291 293 294 294 294 293 293 294 295 297 299 301 301 301 304 307 315 316 316 314 314 313 314 320 325 325 326 326 327 327 327 326 326 326 326 326 325 325
293 293 293 293 293 290 291 294 294 294 293 292 291 293 293 296 298 300 300 300 303 305 311 316 313 311 312 312 307 318 322 325 326 325 326 327 327 327 327 326 326 326 324
292 292 293 292 292 292 287 292 294 294 294 293 291 290 292 295 297 299 299 299 300 301 303 307 304 307 307 309 310 313 312 315 318 322 324 325 326 326 326 326 327 325 323
293 291 291 291 291 290 289 287 292 294 294 293 292 290 290 292 295 296 298 299 298 298 298 299 300 299 302 304 306 310 311 314 318 317 319 321 319 321 322 320 322 324 322
293 291 291 291 291 290 288 286 291 292 292 292 291 290 287 289 291 293 295 296 297 296 297 297 298 298 299 300 303 304 306 308 311 311 311 312 315 319 316 311 312 315 316
Wind_Speed
27 26 25 21 19 15 10 5 7 13 18 18 20 20 16 10 13 21 23 21 22 23 21 19 19 16 17 18 17 17 15 16 15 15 14 12 12 11 11 10 8 8 8
24 24 25 21 22 16 11 8 4 8 13 22 21 22 21 16 14 21 23 24 21 23 22 21 19 19 17 19 18 18 16 14 16 15 15 14 12 12 10 10 7 7 7
22 23 23 20 22 18 13 8 5 8 5 19 22 25 24 22 10 19 23 25 23 21 20 21 20 19 21 20 17 16 15 16 15 16 15 15 13 12 9 8 7 7 6
20 22 19 20 19 18 14 9 6 8 11 9 23 25 28 30 14 18 24 25 24 24 21 18 21 22 22 20 18 17 14 16 14 16 16 14 13 12 11 9 7 7 6
16 19 15 20 18 18 15 11 7 6 7 11 27 26 28 27 20 10 25 25 23 24 25 22 20 21 22 22 20 20 17 17 15 16 15 15 15 13 12 11 9 8 7
13 15 15 17 16 16 17 13 9 5 8 13 21 26 26 27 16 5 24 24 22 23 25 25 21 22 23 22 20 21 20 19 16 17 18 17 16 15 14 12 9 9 8
14 10 14 15 15 14 14 15 11 8 5 5 24 17 18 21 17 10 15 22 23 23 25 26 25 24 24 23 22 20 21 20 20 19 20 18 18 17 15 13 12 10 9
5 8 13 14 15 14 13 14 11 11 3 9 5 12 3 5 22 20 15 23 25 26 25 25 28 26 28 28 25 21 22 21 20 20 20 19 17 18 16 16 14 13 11
11 12 14 15 14 15 13 16 12 10 7 6 10 4 3 4 7 15 24 14 29 29 30 29 26 28 28 29 26 24 23 23 20 23 22 20 19 18 16 18 15 15 14
15 14 15 15 13 15 14 12 11 8 5 4 3 9 5 5 3 3 19 22 30 29 28 28 28 24 25 29 28 26 26 27 24 22 25 20 20 20 17 17 17 17 16
10 13 14 16 14 15 15 14 13 9 4 4 1 4 9 1 7 4 5 10 25 29 28 29 27 26 26 26 31 29 26 28 28 23 26 24 20 21 20 20 19 18 18
12 10 12 15 16 15 14 14 11 8 5 4 2 4 7 6 7 4 3 9 16 24 31 30 27 24 26 28 29 27 26 24 29 29 27 27 24 22 22 22 22 19 16
17 13 14 14 12 13 15 13 10 9 8 8 4 4 10 14 15 14 6 4 5 8 18 30 29 27 27 21 27 26 23 24 25 27 29 29 29 25 23 23 22 21 18
12 11 13 11 10 10 12 12 9 8 6 6 4 1 9 9 21 23 18 8 2 7 9 13 32 32 31 31 28 23 23 22 26 27 28 28 30 30 29 27 25 23 22
13 14 12 10 11 8 10 9 8 8 7 7 7 3 5 6 15 26 26 23 11 4 8 15 13 35 35 33 30 31 26 25 25 27 26 27 28 29 30 30 29 27 26
13 13 14 10 10 10 11 10 10 9 8 10 9 7 5 4 13 28 26 24 25 15 3 21 26 16 36 38 32 31 31 27 27 26 26 26 26 28 29 30 30 29 29
14 14 13 10 11 10 10 12 10 10 10 14 13 11 12 9 10 16 17 22 21 20 8 4 13 17 26 34 32 33 30 30 29 26 24 25 26 27 28 29 30 30 29
15 12 12 7 13 11 9 12 13 12 12 16 14 18 18 15 14 15 11 10 13 14 10 11 15 17 18 30 33 31 32 27 28 27 23 25 26 27 29 29 29 30 31
13 11 11 8 14 13 10 12 14 12 12 13 17 19 19 17 18 17 15 14 10 3 3 12 16 20 21 19 23 23 26 25 27 28 27 24 23 24 27 29 30 31 32
9 11 10 8 14 12 13 14 14 14 13 14 15 16 14 15 14 11 8 12 10 13 9 9 12 5 15 24 23 23 22 22 21 22 21 24 27 28 28 27 28 29 30
9 9 10 8 13 12 13 12 13 13 12 12 13 13 13 8 9 10 8 6 6 13 16 15 11 8 10 6 15 15 17 22 22 23 25 26 25 25 25 25 26 26 27
9 8 8 8 13 12 10 10 10 12 14 14 11 11 9 8 4 7 10 10 5 7 8 7 5 5 7 5 4 2 11 11 5 13 21 25 25 27 25 24 18 16 17
8 7 7 9 9 14 9 9 9 9 12 14 14 12 10 11 9 6 7 8 8 6 7 4 1 5 5 7 8 2 1 3 4 7 13 12 12 18 18 15 13 8 9
6 7 4 7 9 12 11 8 6 5 8 12 15 15 13 11 8 9 5 5 7 10 9 5 3 2 3 5 7 5 7 9 3 3 7 4 9 12 11 8 10 9 10
5 4 1 4 7 9 12 9 9 2 1 7 11 14 13 10 8 6 4 5 5 7 7 9 6 7 4 4 6 5 4 4 4 4 3 4 2 7 9 10 5 6 9
7 2 4 4 7 8 9 6 5 8 5 0 5 10 10 11 10 9 6 5 5 7 6 6 5 5 6 7 6 3 5 6 2 3 3 1 5 5 6 7 10 12 12
Wind_Direction
348 350 349 355 343 338 335 328 194 205 216 224 218 221 213 181 172 179 169 171 163 163 165 168 167 175 172 170 164 159 162 158 154 152 153 150 149 144 138 131 132 119 112
348 345 347 347 348 340 332 312 271 219 221 223 220 219 216 194 170 184 172 176 166 165 173 172 167 172 176 171 167 168 169 170 163 160 155 157 157 152 151 144 149 136 121
346 342 344 350 343 347 332 319 278 242 233 214 218 214 217 207 194 186 182 175 172 171 174 177 178 176 176 174 173 176 175 175 174 167 171 164 166 163 169 165 166 151 139
344 345 341 346 341 354 343 332 313 259 219 217 217 211 218 219 220 194 191 180 175 177 180 183 183 178 179 182 180 178 176 178 184 179 180 175 172 176 174 174 177 170 162
334 346 337 341 345 358 356 342 322 293 244 231 215 213 211 208 212 181 190 185 178 178 181 186 187 189 188 187 182 181 188 188 193 187 186 185 181 182 183 186 188 185 194
329 340 344 347 352 356 1 349 332 298 263 216 203 202 205 200 207 202 180 189 183 187 187 188 192 193 193 192 188 185 186 187 194 197 190 191 194 194 192 193 197 202 202
307 341 355 357 356 358 1 357 352 341 261 209 176 184 196 209 210 222 189 188 191 191 191 190 193 197 197 199 197 196 191 193 191 195 197 202 201 202 202 205 202 207 211
298 6 7 2 359 357 5 0 15 341 284 172 187 142 138 196 218 227 218 200 201 196 192 186 198 199 199 199 203 204 198 197 196 200 203 206 206 209 210 213 210 213 215
0 13 10 2 359 359 359 4 7 2 330 215 197 168 142 206 144 213 221 232 203 194 199 197 202 207 209 206 206 207 207 206 207 205 208 211 213 217 218 216 216 220 221
354 0 360 358 354 354 359 354 10 349 321 294 239 200 175 165 150 146 210 213 204 201 203 205 198 208 214 210 210 210 211 210 212 217 213 216 219 221 218 213 225 229 231
347 351 352 356 353 349 349 349 9 345 353 298 134 204 231 189 163 150 164 170 198 200 202 202 200 208 214 214 214 219 220 217 215 216 217 221 222 224 225 221 229 231 234
344 355 354 345 345 342 340 344 352 328 17 327 233 223 241 222 207 165 125 166 184 201 206 204 201 210 215 219 219 219 219 218 219 218 220 223 225 225 227 228 232 237 235
344 359 353 345 340 336 336 337 339 342 11 3 318 242 251 236 224 208 151 149 163 179 210 214 217 215 214 212 219 220 221 224 221 223 224 227 227 227 231 232 231 234 236
353 352 349 343 340 333 340 342 351 354 3 2 336 300 267 242 205 222 209 178 139 188 192 200 219 221 220 216 223 224 226 228 226 223 224 228 229 228 230 235 236 236 235
16 7 359 349 348 347 1 1 6 6 11 355 9 1 255 232 207 214 217 211 190 188 220 212 198 221 224 220 218 223 225 232 228 225 226 228 231 232 235 237 240 241 243
26 25 5 5 0 10 22 23 24 23 33 31 25 34 49 210 205 217 226 232 214 215 213 220 220 220 223 223 224 222 224 228 233 231 229 230 232 234 236 237 240 243 246
32 23 8 10 11 2 28 38 34 31 44 52 46 60 59 94 146 197 219 230 217 212 198 217 227 234 222 217 223 225 225 230 229 230 231 231 233 234 236 238 240 243 247
34 18 15 30 5 6 28 40 37 35 40 51 50 63 63 64 76 101 117 145 199 221 235 251 261 263 230 212 220 220 222 226 229 231 233 234 236 238 239 240 243 245 248
32 19 19 17 15 23 37 42 42 33 39 46 50 63 58 54 62 67 70 73 59 47 278 247 244 235 228 201 195 198 208 217 224 231 234 237 241 244 245 247 248 250 253
27 23 20 26 12 29 45 46 42 35 41 40 46 50 53 39 43 57 49 75 64 58 44 358 231 256 220 226 224 213 210 211 209 221 230 234 237 241 243 246 250 252 252
35 35 23 24 19 33 39 42 48 31 36 39 44 41 56 53 43 46 30 67 75 60 46 24 20 285 249 204 205 218 224 230 233 242 251 245 239 235 236 245 250 254 255
21 29 29 15 25 36 38 42 53 41 40 40 38 35 39 38 50 55 25 4 60 91 63 47 16 350 2 20 346 204 236 236 236 249 244 249 244 246 245 252 253 260 254
23 16 19 9 19 23 24 37 49 58 46 43 42 42 39 40 25 58 42 353 23 39 114 144 128 30 11 349 325 338 33 241 203 214 223 233 245 244 235 230 231 235 232
21 359 21 2 350 6 14 22 42 63 39 42 41 37 40 43 39 56 42 10 14 39 47 82 86 110 353 327 325 305 288 289 280 156 185 161 213 231 242 244 212 220 216
326 350 5 340 342 353 3 7 30 63 14 40 33 31 33 37 46 43 37 25 12 31 37 48 61 46 37 3 338 280 262 284 267 220 201 182 168 99 95 91 133 190 196
313 318 320 288 334 342 355 4 18 64 91 58 33 22 23 30 33 46 32 29 16 30 36 46 37 26 29 9 355 324 246 237 243 268 223 210 176 156 122 98 127 131 145